Time,TemperatureF,DewpointF,PressureIn,WindDirection,WindDirectionDegrees,WindSpeedMPH,WindSpeedGustMPH,Humidity,HourlyPrecipIn,Conditions,Clouds,dailyrainin,SoftwareType,DateUTC
2013-07-15 00:06:00,80.4,77.0,30.30,NNE,18,9.0,-999.0,88,-99.99,,,0.00,weatherlink.com 1.10,2013-07-15 04:06:00,
2013-07-15 00:21:00,80.4,77.0,30.29,NNE,15,9.0,-999.0,88,-99.99,,,0.00,weatherlink.com 1.10,2013-07-15 04:21:00,
2013-07-15 00:36:00,80.2,77.0,30.30,NNE,16,6.0,-999.0,89,-99.99,,,0.00,weatherlink.com 1.10,2013-07-15 04:36:00,
2013-07-15 00:51:00,80.3,77.0,30.29,NNE,17,9.0,-999.0,89,-99.99,,,0.00,weatherlink.com 1.10,2013-07-15 04:51:00,
2013-07-15 01:06:00,80.3,77.0,30.29,NNE,19,13.0,-999.0,89,-99.99,,,0.00,weatherlink.com 1.10,2013-07-15 05:06:00,
2013-07-15 01:21:00,80.4,77.0,30.30,NNE,19,13.0,-999.0,89,-99.99,,,0.00,weatherlink.com 1.10,2013-07-15 05:21:00,
2013-07-15 01:36:00,80.3,77.0,30.30,NNE,18,9.0,-999.0,90,-99.99,,,0.00,weatherlink.com 1.10,2013-07-15 05:36:00,
2013-07-15 01:51:00,80.3,77.0,30.30,NNE,19,10.0,-999.0,90,-99.99,,,0.00,weatherlink.com 1.10,2013-07-15 05:51:00,
2013-07-15 02:06:00,80.1,77.0,30.29,NNE,19,11.0,-999.0,89,-99.99,,,0.00,weatherlink.com 1.10,2013-07-15 06:06:00,
2013-07-15 02:21:00,80.1,77.0,30.29,NNE,19,10.0,-999.0,90,-99.99,,,0.00,weatherlink.com 1.10,2013-07-15 06:21:00,
2013-07-15 02:36:00,80.0,77.0,30.29,NNE,19,7.0,-999.0,90,-99.99,,,0.00,weatherlink.com 1.10,2013-07-15 06:36:00,
2013-07-15 02:51:00,79.9,77.0,30.29,NNE,19,8.0,-999.0,90,-99.99,,,0.00,weatherlink.com 1.10,2013-07-15 06:51:00,
2013-07-15 03:06:00,79.7,77.0,30.28,NNE,19,11.0,-999.0,90,-99.99,,,0.00,weatherlink.com 1.10,2013-07-15 07:06:00,
2013-07-15 03:21:00,79.8,77.0,30.28,NNE,18,8.0,-999.0,90,-99.99,,,0.00,weatherlink.com 1.10,2013-07-15 07:21:00,
2013-07-15 03:36:00,79.6,77.0,30.29,NNE,18,6.0,-999.0,90,-99.99,,,0.00,weatherlink.com 1.10,2013-07-15 07:36:00,
2013-07-15 03:51:00,79.6,77.0,30.28,NNE,16,6.0,-999.0,90,-99.99,,,0.00,weatherlink.com 1.10,2013-07-15 07:51:00,
2013-07-15 04:06:00,79.4,76.0,30.29,NNE,15,5.0,-999.0,90,-99.99,,,0.00,weatherlink.com 1.10,2013-07-15 08:06:00,
2013-07-15 04:21:00,79.3,77.0,30.29,NNE,15,4.0,-999.0,91,-99.99,,,0.00,weatherlink.com 1.10,2013-07-15 08:21:00,
2013-07-15 04:36:00,79.1,76.0,30.29,NNE,15,4.0,-999.0,91,-99.99,,,0.00,weatherlink.com 1.10,2013-07-15 08:36:00,
2013-07-15 04:51:00,78.8,76.0,30.29,NNE,13,6.0,-999.0,91,-99.99,,,0.00,weatherlink.com 1.10,2013-07-15 08:51:00,
2013-07-15 05:06:00,78.5,76.0,30.29,NNE,15,3.0,-999.0,92,-99.99,,,0.00,weatherlink.com 1.10,2013-07-15 09:06:00,
2013-07-15 05:21:00,78.5,76.0,30.29,NNE,13,3.0,-999.0,92,-99.99,,,0.00,weatherlink.com 1.10,2013-07-15 09:21:00,
2013-07-15 05:36:00,78.4,76.0,30.29,NNE,15,3.0,-999.0,92,-99.99,,,0.00,weatherlink.com 1.10,2013-07-15 09:36:00,
2013-07-15 05:51:00,78.4,76.0,30.29,NNE,13,2.0,-999.0,93,-99.99,,,0.00,weatherlink.com 1.10,2013-07-15 09:51:00,
2013-07-15 06:06:00,77.9,76.0,30.30,NNE,13,3.0,-999.0,93,-99.99,,,0.00,weatherlink.com 1.10,2013-07-15 10:06:00,
2013-07-15 06:21:00,77.7,76.0,30.30,NNE,12,5.0,-999.0,93,-99.99,,,0.00,weatherlink.com 1.10,2013-07-15 10:21:00,
2013-07-15 06:36:00,77.8,76.0,30.30,NNE,13,4.0,-999.0,93,-99.99,,,0.00,weatherlink.com 1.10,2013-07-15 10:36:00,
2013-07-15 06:51:00,78.1,76.0,30.30,NNE,15,4.0,-999.0,93,-99.99,,,0.00,weatherlink.com 1.10,2013-07-15 10:51:00,
2013-07-15 07:06:00,78.1,76.0,30.30,NNE,14,3.0,-999.0,93,-99.99,,,0.00,weatherlink.com 1.10,2013-07-15 11:06:00,
2013-07-15 07:21:00,78.7,77.0,30.31,NNE,14,2.0,-999.0,93,-99.99,,,0.00,weatherlink.com 1.10,2013-07-15 11:21:00,
2013-07-15 07:36:00,79.3,77.0,30.31,NNE,15,4.0,-999.0,93,-99.99,,,0.00,weatherlink.com 1.10,2013-07-15 11:36:00,
2013-07-15 07:51:00,79.7,77.0,30.31,NNE,13,4.0,-999.0,92,-99.99,,,0.00,weatherlink.com 1.10,2013-07-15 11:51:00,
2013-07-15 08:06:00,79.8,77.0,30.31,NNE,17,8.0,-999.0,92,-99.99,,,0.00,weatherlink.com 1.10,2013-07-15 12:06:00,
2013-07-15 08:21:00,80.6,78.0,30.32,NNE,15,7.0,-999.0,90,-99.99,,,0.00,weatherlink.com 1.10,2013-07-15 12:21:00,
2013-07-15 08:36:00,81.3,78.0,30.32,NNE,16,6.0,-999.0,88,-99.99,,,0.00,weatherlink.com 1.10,2013-07-15 12:36:00,
2013-07-15 08:51:00,81.8,77.0,30.32,NNE,19,7.0,-999.0,86,-99.99,,,0.00,weatherlink.com 1.10,2013-07-15 12:51:00,
2013-07-15 09:06:00,82.1,77.0,30.32,NNE,19,6.0,-999.0,84,-99.99,,,0.00,weatherlink.com 1.10,2013-07-15 13:06:00,
2013-07-15 09:21:00,82.6,77.0,30.32,NNE,19,8.0,-999.0,83,-99.99,,,0.00,weatherlink.com 1.10,2013-07-15 13:21:00,
2013-07-15 09:36:00,83.3,77.0,30.32,NNE,18,9.0,-999.0,81,-99.99,,,0.00,weatherlink.com 1.10,2013-07-15 13:36:00,
2013-07-15 09:51:00,83.0,76.0,30.32,NNE,19,7.0,-999.0,80,-99.99,,,0.00,weatherlink.com 1.10,2013-07-15 13:51:00,
2013-07-15 10:06:00,83.0,76.0,30.32,NNE,19,8.0,-999.0,79,-99.99,,,0.00,weatherlink.com 1.10,2013-07-15 14:06:00,
2013-07-15 10:21:00,83.4,76.0,30.32,NNE,19,7.0,-999.0,78,-99.99,,,0.00,weatherlink.com 1.10,2013-07-15 14:21:00,
2013-07-15 10:36:00,83.8,76.0,30.32,NNE,19,6.0,-999.0,77,-99.99,,,0.00,weatherlink.com 1.10,2013-07-15 14:36:00,
2013-07-15 10:51:00,84.1,76.0,30.32,NNE,19,7.0,-999.0,76,-99.99,,,0.00,weatherlink.com 1.10,2013-07-15 14:51:00,
2013-07-15 11:06:00,83.9,76.0,30.32,NNE,19,8.0,-999.0,77,-99.99,,,0.00,weatherlink.com 1.10,2013-07-15 15:06:00,
2013-07-15 11:21:00,84.0,77.0,30.32,NNE,19,8.0,-999.0,78,-99.99,,,0.00,weatherlink.com 1.10,2013-07-15 15:21:00,
2013-07-15 11:36:00,84.3,76.0,30.32,NNE,19,8.0,-999.0,76,-99.99,,,0.00,weatherlink.com 1.10,2013-07-15 15:36:00,
2013-07-15 11:51:00,84.0,76.0,30.32,NNE,22,7.0,-999.0,76,-99.99,,,0.00,weatherlink.com 1.10,2013-07-15 15:51:00,
2013-07-15 12:07:00,83.7,76.0,30.32,NNE,22,7.0,-999.0,78,-99.99,,,0.00,weatherlink.com 1.10,2013-07-15 16:07:00,
2013-07-15 12:37:00,83.2,76.0,30.32,NNE,23,9.0,-999.0,79,-99.99,,,0.00,weatherlink.com 1.10,2013-07-15 16:37:00,
2013-07-15 13:07:00,83.4,77.0,30.32,NNE,23,8.0,-999.0,82,-99.99,,,0.00,weatherlink.com 1.10,2013-07-15 17:07:00,
2013-07-15 13:22:00,83.2,77.0,30.32,NNE,23,9.0,-999.0,82,-99.99,,,0.00,weatherlink.com 1.10,2013-07-15 17:22:00,
2013-07-15 13:37:00,83.2,77.0,30.31,NNE,22,9.0,-999.0,82,-99.99,,,0.00,weatherlink.com 1.10,2013-07-15 17:37:00,
2013-07-15 13:52:00,83.0,77.0,30.31,NNE,22,13.0,-999.0,83,-99.99,,,0.00,weatherlink.com 1.10,2013-07-15 17:52:00,
2013-07-15 14:22:00,83.1,78.0,30.31,NNE,22,11.0,-999.0,83,-99.99,,,0.00,weatherlink.com 1.10,2013-07-15 18:22:00,
2013-07-15 14:37:00,82.7,77.0,30.31,NNE,22,11.0,-999.0,83,-99.99,,,0.00,weatherlink.com 1.10,2013-07-15 18:37:00,
2013-07-15 14:52:00,83.0,77.0,30.31,NNE,23,11.0,-999.0,83,-99.99,,,0.00,weatherlink.com 1.10,2013-07-15 18:52:00,
2013-07-15 15:07:00,82.8,78.0,30.30,NNE,22,10.0,-999.0,84,-99.99,,,0.00,weatherlink.com 1.10,2013-07-15 19:07:00,
2013-07-15 15:22:00,82.9,77.0,30.30,NNE,21,12.0,-999.0,83,-99.99,,,0.00,weatherlink.com 1.10,2013-07-15 19:22:00,
2013-07-15 15:52:00,82.9,76.0,30.30,NNE,22,10.0,-999.0,80,-99.99,,,0.00,weatherlink.com 1.10,2013-07-15 19:52:00,
2013-07-15 16:22:00,83.0,77.0,30.29,NNE,22,11.0,-999.0,81,-99.99,,,0.00,weatherlink.com 1.10,2013-07-15 20:22:00,
2013-07-15 16:37:00,83.2,77.0,30.29,NNE,22,10.0,-999.0,82,-99.99,,,0.00,weatherlink.com 1.10,2013-07-15 20:37:00,
2013-07-15 17:07:00,83.1,76.0,30.28,NNE,20,11.0,-999.0,80,-99.99,,,0.00,weatherlink.com 1.10,2013-07-15 21:07:00,
2013-07-15 17:22:00,83.0,77.0,30.28,NNE,20,10.0,-999.0,81,-99.99,,,0.00,weatherlink.com 1.10,2013-07-15 21:22:00,
2013-07-15 17:37:00,83.2,77.0,30.28,NNE,22,13.0,-999.0,81,-99.99,,,0.00,weatherlink.com 1.10,2013-07-15 21:37:00,
2013-07-15 17:52:00,82.8,77.0,30.28,NNE,22,9.0,-999.0,82,-99.99,,,0.00,weatherlink.com 1.10,2013-07-15 21:52:00,
2013-07-15 18:07:00,82.5,77.0,30.27,NNE,21,11.0,-999.0,83,-99.99,,,0.00,weatherlink.com 1.10,2013-07-15 22:07:00,
2013-07-15 18:22:00,82.2,77.0,30.27,NNE,23,11.0,-999.0,83,-99.99,,,0.00,weatherlink.com 1.10,2013-07-15 22:22:00,
2013-07-15 18:52:00,82.0,77.0,30.27,NNE,21,11.0,-999.0,85,-99.99,,,0.00,weatherlink.com 1.10,2013-07-15 22:52:00,
2013-07-15 19:37:00,81.4,77.0,30.28,NNE,22,9.0,-999.0,86,-99.99,,,0.00,weatherlink.com 1.10,2013-07-15 23:37:00,
2013-07-15 19:52:00,81.2,77.0,30.28,NNE,22,10.0,-999.0,87,-99.99,,,0.00,weatherlink.com 1.10,2013-07-15 23:52:00,
2013-07-15 20:07:00,81.1,77.0,30.28,NNE,21,9.0,-999.0,87,-99.99,,,0.00,weatherlink.com 1.10,2013-07-16 00:07:00,
2013-07-15 20:22:00,81.1,77.0,30.28,NNE,22,8.0,-999.0,87,-99.99,,,0.00,weatherlink.com 1.10,2013-07-16 00:22:00,
2013-07-15 20:37:00,80.8,76.0,30.28,NNE,23,6.0,-999.0,86,-99.99,,,0.00,weatherlink.com 1.10,2013-07-16 00:37:00,
2013-07-15 20:52:00,80.9,76.0,30.27,NNE,22,6.0,-999.0,86,-99.99,,,0.00,weatherlink.com 1.10,2013-07-16 00:52:00,
2013-07-15 21:07:00,80.8,77.0,30.28,NNE,22,7.0,-999.0,87,-99.99,,,0.00,weatherlink.com 1.10,2013-07-16 01:07:00,
2013-07-15 21:52:00,80.6,77.0,30.29,NNE,19,5.0,-999.0,87,-99.99,,,0.00,weatherlink.com 1.10,2013-07-16 01:52:00,
2013-07-15 22:07:00,80.6,77.0,30.29,NNE,21,8.0,-999.0,87,-99.99,,,0.00,weatherlink.com 1.10,2013-07-16 02:07:00,
2013-07-15 22:22:00,80.6,77.0,30.29,NNE,21,5.0,-999.0,88,-99.99,,,0.00,weatherlink.com 1.10,2013-07-16 02:22:00,
2013-07-15 22:37:00,80.6,77.0,30.29,NNE,22,7.0,-999.0,88,-99.99,,,0.00,weatherlink.com 1.10,2013-07-16 02:37:00,
2013-07-15 22:52:00,80.6,77.0,30.30,NNE,22,7.0,-999.0,89,-99.99,,,0.00,weatherlink.com 1.10,2013-07-16 02:52:00,
2013-07-15 23:07:00,80.5,77.0,30.29,NNE,24,7.0,-999.0,89,-99.99,,,0.00,weatherlink.com 1.10,2013-07-16 03:07:00,
2013-07-15 23:22:00,80.5,77.0,30.29,NNE,23,6.0,-999.0,88,-99.99,,,0.00,weatherlink.com 1.10,2013-07-16 03:22:00,
2013-07-15 23:37:00,80.5,77.0,30.29,NNE,22,7.0,-999.0,88,-99.99,,,0.00,weatherlink.com 1.10,2013-07-16 03:37:00,
2013-07-15 23:52:00,80.4,77.0,30.29,NNE,25,7.0,-999.0,88,-99.99,,,0.00,weatherlink.com 1.10,2013-07-16 03:52:00,